This is the latest recevied weather packets stored in our database for station/object K3HW. If no packets are shown the sender has not sent any weather packets the latest 10 day(s).
| Time | Temp. | Humidity | Pressure | Rain* | Wind** | Luminosity | Snow |
|---|---|---|---|---|---|---|---|
| 1777436089 | 12.78° C | 66% | 1021.1 hPa | 0 mm | - | 0 W/m² | - |
| 1777435786 | 12.78° C | 65% | 1021.3 hPa | 0 mm | - | 0 W/m² | - |
| 1777435482 | 12.78° C | 68% | 1021.3 hPa | 0 mm | - | 0 W/m² | - |
| 1777435179 | 12.78° C | 69% | 1021.4 hPa | 0 mm | - | 0 W/m² | - |
| 1777434873 | 12.78° C | 69% | 1021.5 hPa | 0 mm | - | 0 W/m² | - |
| 1777434572 | 12.78° C | 67% | 1021.5 hPa | 0 mm | - | 0 W/m² | - |
| 1777434269 | 12.78° C | 69% | 1021.6 hPa | 0 mm | - | 0 W/m² | - |
| 1777433967 | 12.78° C | 70% | 1021.7 hPa | 0 mm | - | 0 W/m² | - |
| 1777433663 | 12.78° C | 71% | 1021.5 hPa | 0 mm | - | 0 W/m² | - |
| 1777433359 | 12.78° C | 68% | 1021.5 hPa | 0 mm | - | 0 W/m² | - |
| 1777433055 | 12.78° C | 68% | 1021.7 hPa | 0 mm | - | 0 W/m² | - |
| 1777432750 | 12.78° C | 67% | 1021.6 hPa | 0 mm | - | 0 W/m² | - |
| 1777432447 | 12.78° C | 68% | 1021.6 hPa | 0 mm | - | 0 W/m² | - |
| 1777432142 | 12.78° C | 68% | 1021.5 hPa | 0 mm | - | 0 W/m² | - |
| 1777431836 | 12.78° C | 69% | 1021.8 hPa | 0 mm | - | 0 W/m² | - |
| 1777431533 | 12.78° C | 69% | 1021.4 hPa | 0 mm | - | 0 W/m² | - |
| 1777431230 | 12.78° C | 67% | 1021.3 hPa | 0 mm | - | 0 W/m² | - |
| 1777430925 | 12.78° C | 66% | 1021.3 hPa | 0 mm | - | 0 W/m² | - |
| 1777430622 | 12.78° C | 66% | 1021.2 hPa | 0 mm | - | 0 W/m² | - |
| 1777430317 | 12.78° C | 67% | 1021.4 hPa | 0 mm | - | 0 W/m² | - |
| 1777430017 | 12.78° C | 69% | 1021.7 hPa | 0 mm | - | 0 W/m² | - |
| 1777429714 | 12.78° C | 69% | 1021.7 hPa | 0 mm | - | 0 W/m² | - |
| 1777429410 | 12.22° C | 71% | 1021.6 hPa | 0 mm | - | 0 W/m² | - |
| 1777429106 | 12.78° C | 73% | 1021.4 hPa | 0 mm | - | 0 W/m² | - |
| 1777428803 | 12.78° C | 68% | 1021.2 hPa | 0 mm | - | 0 W/m² | - |
* Rain latest hour (hover to see other rain measurements)
** Current wind speed in m/s (hover to see current wind gust speed)